Regional Weather Roundup
Issued by NWS Sioux Falls, SD

Home | Current Version | Previous Version | Text Only | Print | Product List | Glossary Off
Versions: 1 2 3 4 5 6 7 8 9 10 11 12 13 14 15 16 17 18 19 20 21 22 23 24 25 26 27 28 29 30 31 32 33 34 35 36 37 38 39 40 41 42 43 44 45 46 47 48 49 50

000
ASUS43 KFSD 300810
RWRFSD

WEATHER ROUNDUP FOR SE SOUTH DAKOTA/SW MINNESOTA/NW IOWA
NATIONAL WEATHER SERVICE SIOUX FALLS SD
300 AM CDT SUN AUG 30 2015

NOTE: "FAIR" INDICATES FEW OR NO CLOUDS BELOW 12,000 FEET WITH NO
SIGNIFICANT WEATHER AND OR OBSTRUCTIONS TO VISIBILITY.


SDZ038>040-050-052>070-300900-
SOUTHEAST SOUTH DAKOTA

CITY           SKY/WX    TMP DP  RH WIND       PRES   REMARKS
BROOKINGS      CLOUDY    63  61  94 S13       29.98F
CHAMBERLAIN    CLEAR     69  62  77 S9        29.90F
HURON          CLEAR     66  64  93 S13       29.89F
MADISON        CLOUDY    63  63 100 S13       29.97F
MITCHELL       CLEAR     65  64  97 S12       29.93F
SIOUX FALLS    CLOUDY    63  61  93 S9        29.99S
WINNER         FAIR      72  58  61 S18       29.90F
YANKTON        CLOUDY    63  63 100 S9        29.97F
$$

MNZ071-072-080-081-089-090-097-098-300900-
SOUTHWEST MINNESOTA

CITY           SKY/WX    TMP DP  RH WIND       PRES   REMARKS
FAIRMONT       CLOUDY    63  57  82 S10       30.01F
JACKSON        CLOUDY    61  61 100 S9G18     30.02S FOG
LUVERNE        CLOUDY    63  61  94 S10G16    30.01F FOG
MARSHALL       PTCLDY    63  57  82 S13       29.96S
MONTEVIDEO     CLEAR     63  63 100 S7        29.95F
PIPESTONE      CLOUDY    63  61  94 SW12      30.00S FOG
REDWOOD FALLS  CLOUDY    63  62  97 S9        29.97S
TRACY          CLOUDY    64  63  95 SW17G26   29.96S FOG
WINDOM         CLOUDY    61  61 100 S10       30.00F FOG
WORTHINGTON    CLOUDY    61  57  88 SW15      30.01F
$$

IAZ001>003-012>014-020>022-031-032-NEZ013-014-SDZ071-300900-
NORTHWEST IOWA

CITY           SKY/WX    TMP DP  RH WIND       PRES   REMARKS
CHEROKEE       CLOUDY    62  62 100 S9        30.03F
DENISON        CLOUDY    64  63  94 S5        30.03S
ESTHERVILLE    CLOUDY    61  60  97 S9        30.02F
LE MARS        CLOUDY    64  63  94 S12       30.02F
ORANGE CITY    CLOUDY    64  63  94 S9        30.02F
SHELDON        CLOUDY    63  61  94 S9G15     30.01S
SIOUX CITY     NOT AVBL
SPENCER        CLOUDY    61  59  93 S10       30.03S
STORM LAKE     CLOUDY    61  61 100 S10       30.05S
$$

ABBREVIATIONS USED IN REMARKS
   TC - TEMPERATURE IN CELSIUS
  WCI - WIND CHILL INDEX
   HX - HEAT INDEX
  VSB - VISIBILITY




USA.gov is the U.S. government's official web portal to all federal, state and local government web resources and services.